Miscellaneous Local Product
Issued by NWS Hastings, NE

Home | Current Version | Previous Version | Graphics & Text | Print | Product List | Glossary On
Versions: 1 2 3 4 5 6 7 8 9 10 11 12 13 14 15 16 17 18 19 20 21 22 23 24 25 26 27 28 29 30 31 32 33 34 35 36 37 38 39 40 41 42 43 44 45 46 47 48 49 50
000
AXUS43 KGID 290102
MISGRI

GID CWA HOURLY WEATHER ROUNDUP
NATIONAL WEATHER SERVICE HASTINGS NE
800 PM CDT SAT MAR 28 2015

NOTE: "FAIR" INDICATES FEW OR NO CLOUDS BELOW 12,000 FEET WITH NO
SIGNIFICANT WEATHER AND/OR OBSTRUCTIONS TO VISIBILITY.

...SOUTH CENTRAL NEBRASKA...

CITY           SKY/WX    TMP DP  RH WIND       PRES   REMARKS
GRAND ISLAND   CLEAR     56  34  43 SE12      29.92F
HASTINGS       CLEAR     58  34  40 SE13      29.91F
KEARNEY        CLEAR     61  34  36 SE16      29.88F
ORD            CLEAR     59  33  37 SE15      29.83F
YORK           CLEAR     54  34  47 S13       29.95F
AURORA         CLEAR     54  33  45 SE13      29.93F
LEXINGTON      CLEAR     64  35  34 SE20      29.83F
HOLDREGE       CLEAR     60  33  36 SE15      29.86F
HEBRON         CLEAR     54  32  44 SE8       29.97S

...NEBRASKA PANHANDLE...

CITY           SKY/WX    TMP DP  RH WIND       PRES   REMARKS
CHADRON        PTCLDY    77  27  15 W12       29.63F
ALLIANCE       PTCLDY    73  28  18 W15       29.72F
SCOTTSBLUFF    PTCLDY    75  26  16 W15G24    29.74F
SIDNEY         PTCLDY    69  25  19 W10       29.82R

...WESTERN AND NORTH CENTRAL NEBRASKA...

CITY           SKY/WX    TMP DP  RH WIND       PRES   REMARKS
VALENTINE      CLEAR     72  34  24 S23G32    29.65F
AINSWORTH      CLEAR     65  34  32 S24       29.71F
ONEILL         CLEAR     56  35  44 SE18G24   29.81F
BROKEN BOW     CLEAR     63  36  36 S17       29.81F
IMPERIAL         N/A     74  25  16 SW10      29.78F
NORTH PLATTE   CLEAR     67  35  30 SE15      29.78S
MCCOOK         CLEAR     72  35  25 SE16G25   29.80F

...EASTERN NEBRASKA...

CITY           SKY/WX    TMP DP  RH WIND       PRES   REMARKS
NORFOLK        CLEAR     50  34  54 SE15      29.91F
SO SIOUX CITY  CLEAR     50  29  44 S12G22    29.97F
TEKAMAH        CLEAR     50  29  44 SE20G36   29.99F
COLUMBUS       CLEAR     50  32  50 SE13      29.96F
ALBION         CLEAR     52  33  47 SE13G22   29.91S
OMAHA EPPLEY   PTCLDY    49  31  49 SE15      30.02F
MILLARD        CLEAR     49  32  51 SE12      30.01F
LINCOLN        CLEAR     52  33  48 SE14      30.00F
NEBRASKA CITY  CLEAR     48  30  50 SE12      30.04F
BEATRICE       CLEAR     52  33  49 SE12      29.99F
FALLS CITY     CLEAR     47  31  53 SE12      30.06F

...NORTHERN KANSAS...

CITY           SKY/WX    TMP DP  RH WIND       PRES   REMARKS
GOODLAND       CLEAR     71  23  16 S9        29.87S
HILL CITY      CLEAR     68  38  33 SE13      29.88F
NORTON         CLEAR     68  32  26 SE14      29.85F
PHILLIPSBURG   CLEAR     66  37  34 E12       29.89F
SMITH CENTER   CLEAR     59  37  44 SE14      29.92F
BELOIT         CLEAR     61  36  39 SE8       29.95F
HAYS           CLEAR     64  37  36 SE15      29.92F
RUSSELL        CLEAR     63  40  42 SE13      29.92F
CONCORDIA      CLEAR     57  36  45 SE13      29.97S
SALINA         CLEAR     62  37  39 SE10      29.98S
TOPEKA         CLEAR     50  32  50 E12       30.07F



USA.gov is the U.S. government's official web portal to all federal, state and local government web resources and services.